Location: Six Mile Lake
(44.9000°N, 79.7170°W)
Time: 13:49:57
(UTC-04:00)

NOAA 18 - Pass Details

Date: 08 July 2022
Orbit: 839 x 860 km, 98.9° (Epoch: 18 August)

Event Time Altitude Azimuth Distance (km) Brightness Sun altitude
Exits shadow 22:19:18 14° 139° (SE) 2,223 6.7 -10.6°
Maximum altitude 22:23:53 49° 69° (ENE) 1,096 5.7 -11.2°
Drops below altitude 10° 22:29:13 10° 356° (N) 2,507 8.5 -11.8°
Sets 22:31:40 0° 351° (N) 3,449 9.5 -12.1°
